Погода в Кемере

Турция     37°21′09″N   30°03′47″E
темп.,
°C
ветер,
м/с
пор.,
м/с
влажн.,
%
обл.,
%
осадки,
мм/ч
давл.,
гПа
погр.,
м
26 февраля, пт
пт2600:000ссз22840 0.0 102836
03:00−1сз22870 0.0 102744
06:00−1сз22910 0.0 102736
09:00+1сз22730 0.0 1026101
12:00+7ссз22460 0.0 1024344
15:00+9ссз21410 0.0 1022571
18:00+8ссз22460 0.0 1021230
21:00+3с12580 0.0 102122
27 февраля, сб
сб2700:00+1сз11630 0.0 102222
03:00+1сз11700 0.0 102022
06:000зсз11710 0.0 102022
09:00+4з11520 0.0 102045
12:00+9ссз11320 0.0 1018419
15:00+11с22250 0.0 1016888
18:00+10ссв22370 0.0 101552
21:00+4ссв11490 0.0 101622
28 февраля, вс
вс2800:00+2ссз11530 0.0 101722
03:00+1зсз12570 0.0 101622
06:00+1зсз12600 0.0 101622
09:00+5сз11470 0.0 101665
12:00+9с21370 0.0 1016712
15:00+10ссз33380 0.0 10151441
18:00+9ссз555212 0.0 10151267
21:00+4ссз237339 0.0 101873
1 марта, пн
пн100:00+3ссз228443 0.0 101934
03:000с339121 0.0 102082
06:00−1ссз239028 0.0 1020112
09:00−1с337761 0.0 1020251
12:00+2с446087 0.0 1020574
15:00+4с555048 0.0 1018912
18:00+2с56470 0.0 1018851
21:00−1с23640 0.0 1020156
2 марта, вт
вт200:00−2ссз23680 0.0 1021213
03:00−3ссз23695 0.0 1021278
06:00−4ссз348180 0.0 1020357
09:00−3с357690 0.0 1021622
12:00+1ссв565699 0.0 1021993
15:00+2с774795 0.0 10201168
18:000ссв785244 0.0 1019978
21:00−2с4106922 0.0 1021719